EN

Hourly Weather Altuhovo

Today, 26 January, Tuesday

Time Temperature Precipitation Wind Pressure Humidity
00:00 -1°C° 0 mm 6 mps 736 mmHg 93%
01:00 -1°C° 0 mm 7 mps 735 mmHg 92%
02:00 -2°C° 0 mm 7 mps 735 mmHg 91%
03:00 -2°C° 0.1 mm 7 mps 734 mmHg 89%
04:00 -2°C° 0.1 mm 7 mps 733 mmHg 88%
05:00 -2°C° 0.1 mm 7 mps 733 mmHg 87%
06:00 -2°C° 0.5 mm 7 mps 732 mmHg 90%
07:00 -2°C° 0.5 mm 7 mps 732 mmHg 93%
08:00 -2°C° 0.5 mm 7 mps 731 mmHg 96%
09:00 -1°C° 0.3 mm 7 mps 731 mmHg 96%
10:00 -1°C° 0.3 mm 7 mps 732 mmHg 95%
11:00 -1°C° 0.3 mm 7 mps 732 mmHg 94%
12:00 -1°C° 0.1 mm 7 mps 732 mmHg 90%
13:00 -2°C° 0.1 mm 7 mps 733 mmHg 86%
14:00 -2°C° 0.1 mm 8 mps 733 mmHg 82%
15:00 -2°C° 0 mm 8 mps 734 mmHg 82%
16:00 -4°C° 0 mm 8 mps 734 mmHg 82%
17:00 -4°C° 0 mm 8 mps 735 mmHg 81%
18:00 -3°C° 0 mm 7 mps 735 mmHg 81%
19:00 -3°C° 0 mm 7 mps 735 mmHg 80%
20:00 -3°C° 0 mm 7 mps 735 mmHg 80%
21:00 -3°C° 0 mm 7 mps 735 mmHg 81%
22:00 -3°C° 0 mm 7 mps 735 mmHg 82%
23:00 -3°C° 0 mm 7 mps 735 mmHg 83%

Tomorrow, 27 January, Wednesday

Time Temperature Precipitation Wind Pressure Humidity
00:00 -3°C° 0 mm 6 mps 735 mmHg 81%
01:00 -3°C° 0 mm 6 mps 736 mmHg 80%
02:00 -3°C° 0 mm 6 mps 736 mmHg 79%
03:00 -4°C° 0 mm 6 mps 736 mmHg 80%
04:00 -4°C° 0 mm 6 mps 736 mmHg 81%
05:00 -4°C° 0 mm 6 mps 737 mmHg 82%
06:00 -4°C° 0 mm 6 mps 737 mmHg 82%
07:00 -4°C° 0 mm 5 mps 737 mmHg 82%
08:00 -4°C° 0 mm 5 mps 738 mmHg 83%
09:00 -3°C° 0 mm 4 mps 738 mmHg 82%
10:00 -3°C° 0 mm 4 mps 739 mmHg 82%
11:00 -2°C° 0 mm 4 mps 739 mmHg 81%
12:00 -1°C° 0 mm 3 mps 739 mmHg 81%
13:00 -1°C° 0 mm 2 mps 739 mmHg 81%
14:00 -1°C° 0 mm 2 mps 739 mmHg 80%
15:00 +1°C° 0 mm 1 mps 739 mmHg 83%
16:00 0°C° 0 mm 1 mps 739 mmHg 85%
17:00 -1°C° 0 mm 0 mps 739 mmHg 87%
18:00 -1°C° 0 mm 0 mps 739 mmHg 88%
19:00 0°C° 0 mm 1 mps 739 mmHg 88%
20:00 -1°C° 0 mm 1 mps 739 mmHg 88%
21:00 0°C° 0.1 mm 1 mps 739 mmHg 90%
22:00 -2°C° 0.1 mm 2 mps 738 mmHg 91%
23:00 -2°C° 0.1 mm 2 mps 738 mmHg 93%

Day after tomorrow, 28 January, Thursday

Time Temperature Precipitation Wind Pressure Humidity
00:00 -2°C° 0.3 mm 3 mps 738 mmHg 93%
01:00 -2°C° 0.3 mm 3 mps 738 mmHg 93%
02:00 -3°C° 0.3 mm 4 mps 737 mmHg 94%
03:00 -2°C° 0.5 mm 4 mps 737 mmHg 95%
04:00 -1°C° 0.5 mm 3 mps 736 mmHg 95%
05:00 -1°C° 0.5 mm 3 mps 736 mmHg 96%
06:00 -1°C° 0.1 mm 3 mps 736 mmHg 95%
07:00 0°C° 0.1 mm 3 mps 736 mmHg 95%
08:00 -1°C° 0.1 mm 4 mps 736 mmHg 94%
09:00 0°C° 0 mm 3 mps 735 mmHg 94%
10:00 0°C° 0 mm 3 mps 735 mmHg 94%
11:00 0°C° 0 mm 3 mps 735 mmHg 93%
12:00 0°C° 0.3 mm 3 mps 735 mmHg 94%
13:00 0°C° 0.3 mm 3 mps 734 mmHg 95%
14:00 -1°C° 0.3 mm 4 mps 734 mmHg 96%
15:00 -1°C° 0.2 mm 4 mps 734 mmHg 96%
16:00 -1°C° 0.2 mm 4 mps 734 mmHg 95%
17:00 -1°C° 0.2 mm 4 mps 734 mmHg 95%
18:00 0°C° 0 mm 4 mps 734 mmHg 95%
19:00 0°C° 0 mm 4 mps 734 mmHg 95%
20:00 0°C° 0 mm 5 mps 733 mmHg 95%
21:00 0°C° 0 mm 4 mps 734 mmHg 95%
22:00 0°C° 0 mm 4 mps 734 mmHg 94%
23:00 +1°C° 0 mm 3 mps 734 mmHg 94%

29 January, Friday

Time Temperature Precipitation Wind Pressure Humidity
00:00 0°C° 0 mm 3 mps 734 mmHg 93%
01:00 -1°C° 0 mm 4 mps 733 mmHg 91%
02:00 -2°C° 0 mm 4 mps 733 mmHg 90%
03:00 -2°C° 0 mm 4 mps 733 mmHg 89%
04:00 -3°C° 0 mm 4 mps 733 mmHg 88%
05:00 -3°C° 0 mm 4 mps 733 mmHg 87%
06:00 -3°C° 0 mm 4 mps 732 mmHg 88%
07:00 -3°C° 0 mm 4 mps 732 mmHg 88%
08:00 -3°C° 0 mm 4 mps 731 mmHg 88%
09:00 -4°C° 0 mm 5 mps 731 mmHg 88%
10:00 -4°C° 0 mm 5 mps 730 mmHg 88%
11:00 -2°C° 0 mm 5 mps 730 mmHg 88%
12:00 -2°C° 0.2 mm 5 mps 729 mmHg 88%
13:00 -2°C° 0.2 mm 5 mps 729 mmHg 89%
14:00 -2°C° 0.2 mm 5 mps 728 mmHg 89%
15:00 -4°C° 0.4 mm 5 mps 728 mmHg 91%
16:00 -4°C° 0.4 mm 5 mps 728 mmHg 92%
17:00 -5°C° 0.4 mm 5 mps 728 mmHg 93%
18:00 -5°C° 0.2 mm 5 mps 728 mmHg 90%
19:00 -6°C° 0.2 mm 5 mps 728 mmHg 88%
20:00 -7°C° 0.2 mm 5 mps 728 mmHg 85%
21:00 -7°C° 0.1 mm 5 mps 728 mmHg 85%
22:00 -7°C° 0.1 mm 4 mps 728 mmHg 86%
23:00 -7°C° 0.1 mm 4 mps 728 mmHg 86%

30 January, Saturday

Time Temperature Precipitation Wind Pressure Humidity
00:00 -7°C° 0.1 mm 4 mps 728 mmHg 88%
01:00 -7°C° 0.1 mm 4 mps 728 mmHg 90%
02:00 -7°C° 0.1 mm 4 mps 728 mmHg 91%
03:00 -7°C° 0.1 mm 4 mps 727 mmHg 91%
04:00 -7°C° 0.1 mm 4 mps 727 mmHg 91%
05:00 -7°C° 0.1 mm 4 mps 727 mmHg 92%
06:00 -7°C° 0.1 mm 4 mps 727 mmHg 91%
07:00 -7°C° 0.1 mm 4 mps 727 mmHg 91%
08:00 -7°C° 0.1 mm 5 mps 728 mmHg 91%
09:00 -7°C° 0.1 mm 5 mps 728 mmHg 88%
10:00 -6°C° 0.1 mm 5 mps 728 mmHg 86%
11:00 -6°C° 0.1 mm 5 mps 729 mmHg 84%
12:00 -6°C° 0 mm 5 mps 729 mmHg 82%
13:00 -6°C° 0 mm 5 mps 729 mmHg 81%
14:00 -6°C° 0 mm 5 mps 729 mmHg 80%
15:00 -6°C° 0 mm 5 mps 729 mmHg 83%
16:00 -7°C° 0 mm 5 mps 729 mmHg 85%
17:00 -7°C° 0 mm 5 mps 730 mmHg 88%
18:00 -7°C° 0.1 mm 4 mps 730 mmHg 89%
19:00 -7°C° 0.1 mm 4 mps 730 mmHg 90%
20:00 -7°C° 0.1 mm 4 mps 730 mmHg 91%
21:00 -7°C° 0.1 mm 4 mps 730 mmHg 91%
22:00 -7°C° 0.1 mm 4 mps 731 mmHg 91%
23:00 -7°C° 0.1 mm 4 mps 731 mmHg 91%

31 January, Sunday

Time Temperature Precipitation Wind Pressure Humidity
00:00 -7°C° 0 mm 4 mps 731 mmHg 91%
01:00 -8°C° 0 mm 4 mps 731 mmHg 92%
02:00 -8°C° 0 mm 4 mps 731 mmHg 92%
03:00 -8°C° 0 mm 3 mps 731 mmHg 92%
04:00 -8°C° 0 mm 3 mps 731 mmHg 93%
05:00 -8°C° 0 mm 3 mps 732 mmHg 93%
06:00 -8°C° 0 mm 3 mps 732 mmHg 92%
07:00 -9°C° 0 mm 3 mps 732 mmHg 92%
08:00 -9°C° 0 mm 3 mps 733 mmHg 92%
09:00 -9°C° 0 mm 4 mps 733 mmHg 88%
10:00 -8°C° 0 mm 4 mps 733 mmHg 84%
11:00 -8°C° 0 mm 5 mps 734 mmHg 80%
12:00 -7°C° 0 mm 5 mps 734 mmHg 79%
13:00 -7°C° 0 mm 5 mps 734 mmHg 78%
14:00 -7°C° 0 mm 5 mps 734 mmHg 77%
15:00 -7°C° 0 mm 5 mps 734 mmHg 80%
16:00 -7°C° 0 mm 5 mps 734 mmHg 84%
17:00 -8°C° 0 mm 5 mps 734 mmHg 87%
18:00 -8°C° 0.1 mm 5 mps 735 mmHg 87%
19:00 -8°C° 0.1 mm 5 mps 735 mmHg 86%
20:00 -8°C° 0.1 mm 5 mps 735 mmHg 86%
21:00 -8°C° 0 mm 5 mps 735 mmHg 87%
22:00 -8°C° 0 mm 5 mps 735 mmHg 87%
23:00 -8°C° 0 mm 5 mps 735 mmHg 88%
Show more